Location: Cactus School
(34.5700°N, 118.0931°W)
Time: 22:43:26
(UTC-08:00)

Tiros 1 despin weight - Visible Passes

Search period start: 19 November 2019 00:00
Search period end: 29 November 2019 00:00
Orbit: 594 x 642 km, 48.2° (Epoch: 19 November)

Date Brightness Start Highest point End Pass type
(mag) Time Alt. Az. Time Alt. Az. Time Alt. Az.
19 Nov ? 17:46:17 10° NW 17:50:13 29° NNE 17:52:06 21° ENE visible
19 Nov ? 19:27:32 10° WNW 19:29:12 22° WNW 19:29:12 22° WNW visible
20 Nov ? 18:02:38 10° NW 18:07:00 48° NNE 18:08:34 33° E visible
20 Nov ? 19:44:32 10° WNW 19:45:40 16° W 19:45:40 16° W visible
21 Nov ? 18:19:07 10° NW 18:23:38 88° SSW 18:25:16 39° SE visible
22 Nov ? 18:35:51 10° WNW 18:40:06 42° SW 18:42:18 24° SSE visible
23 Nov ? 17:10:46 10° NW 17:15:13 63° NE 17:19:42 10° ESE visible
23 Nov ? 18:53:10 10° W 18:56:27 20° SW 18:59:45 10° S visible
24 Nov ? 17:27:21 10° WNW 17:31:47 65° SW 17:36:16 10° SE visible
25 Nov ? 17:44:17 10° WNW 17:48:12 30° SW 17:52:10 10° SSE visible
26 Nov ? 18:02:07 10° W 18:04:29 14° SW 18:06:53 10° SSW visible
